Tracking 19164 objects as of 22-May-2018
HD Live streaming from Space Station
objects crossing your sky now

ECAMSAT

Track ECAMSAT now!
10-day predictions
ECAMSAT is classified as:


NORAD ID: 43019
Int'l Code: 1998-067NG
Perigee: 400.1 km
Apogee: 408.0 km
Inclination: 51.6 °
Period: 92.5 minutes
Semi major axis: 6775 km
RCS: Unknown
Launch date: November 20, 1998
Source: United States (US)
Launch site: TYURATAM MISSILE AND SPACE COMPLEX (TTMTR)
Uplink (MHz):
Downlink (MHz): 437.095
Beacon (MHz):
Mode: 1200bps AFSK
Call sign: KE6QLL
Status: Inactive

aabbcc
Your satellite tracking list
Your tracking list is empty




NASA's NSSDC Master Catalog

Two Line Element Set (TLE):
1 43019U 98067NG  18141.38910190  .00003357  00000-0  52731-4 0  9993
2 43019  51.6389 150.0987 0005772  71.3933 288.7685 15.56807499114372
Source of the keplerian elements: AFSPC